Weather in Urgut

Uzbekistan     39°24′31″N   67°14′36″E
В апреле 2022 года жителям России запретили посещать сайт meteo.paraplan.net по решению Генеральной прокуратуры. Аудитория сайта уменьшилась в 10 раз. Владельцы сайта не видят смысла в поддержке погодного сервера в таких условиях. Сайт будет закрыт в октябре.
temp.,
°C
wind,
m/s
gust,
m/s
humid.,
%
clouds,
%
prec.,
mm/h
press.,
hPa
HPBL,
m
25 september, sun
sun2523:00+20ssw11210 0.0 101113
02:00+18ssw22240 0.0 101111
05:00+18sse22250 0.0 101111
08:00+22sse11210 0.0 101282
11:00+27n22150 0.0 10111290
14:00+29n44120 0.0 10102190
17:00+29nnw33120 0.0 10101859
20:00+22nw11170 0.0 101311
26 september, mon
mon2623:00+20sw22200 0.0 101412
02:00+19s22210 0.0 101411
05:00+18se22210 0.0 101512
08:00+23se12160 0.0 101663
11:00+28nnw33110 0.0 10161547
14:00+30nnw4490 0.0 10142399
17:00+29nw33100 0.0 10151972
20:00+21ne49260 0.0 1017288
27 september, tue
tue2723:00+19ne37380 0.0 1018222
02:00+16nne13500 0.0 101871
05:00+14n12550 0.0 101924
08:00+15nne23440 0.0 1019305
11:00+22nne33280 0.0 1017721
14:00+25nne53200 0.0 10151075
17:00+23nne65200 0.0 1015858
20:00+17nne37280 0.0 1016193
28 september, wed
wed2823:00+15wsw11310 0.0 101625
02:00+13wsw11330 0.0 101512
05:00+12ne11350 0.0 101514
08:00+15nne22290 0.0 1016155
11:00+21nne32210 0.0 1014615
14:00+25nne64160 0.0 10121204
17:00+23ne441966 0.0 1012696
20:00+17nne142649 0.0 101471
29 september, thu
thu2923:00+14sw11290 0.0 101416
02:00+13s00320 0.0 101311
05:00+13ne01335 0.0 101211
08:00+18ene112637 0.0 101286
11:00+24nne32175 0.0 1011770
14:00+27nne54141 0.0 10091436
17:00+25ne551680 0.0 1009579
20:00+18nnw0125100 0.0 101112